Philip, SD

5:23 PM MST on February 06, 2016 (GMT -0700)
Philip

Weather History for KPHP - September, 2014

Change the Weather History Date:

Tuesday, September 2, 2014

  Actual Average Record
Temperature  
Mean Temperature 67 °F 68 °F  
Max Temperature 85 °F 84 °F 105 °F (1971)
Min Temperature 49 °F 53 °F 38 °F (1952)
Degree Days  
Heating Degree Days 0 2  
Month to date heating degree days 1 4  
Since 1 July heating degree days 20 29  
Cooling Degree Days 2 5  
Month to date cooling degree days 2 11  
Year to date cooling degree days 581 746  
Growing Degree Days 17 (Base 50)    
Moisture  
Dew Point 48 °F    
Average Humidity 60    
Maximum Humidity 93    
Minimum Humidity 27    
Precipitation  
Precipitation 0.00 in 0.05 in 0.76 in (1999)
Month to date precipitation T 0.10  
Year to date precipitation 13.43 13.48  
Sea Level Pressure  
Sea Level Pressure 29.83 in    
Wind  
Wind Speed 7 mph (WSW)    
Max Wind Speed 18 mph    
Max Gust Speed 24 mph    
Visibility 10 miles    
Events      
T = Trace of Precipitation, MM = Missing Value Source: NWS Daily Summary

Daily Weather History Graph

Daily Weather History Graph

Search for Another Location

Airport or City:

Trip Planner

Search our weather history database for the weather conditions in past years. The results will help you decide how hot, cold, wet, or windy it might be!

Date:

Astronomy

Sep. 02, 2014 Rise Set
Actual Time 6:10 AM MDT 7:20 PM MDT
Civil Twilight 5:41 AM MDT 7:50 PM MDT
Nautical Twilight 5:05 AM MDT 8:25 PM MDT
Astronomical Twilight 4:27 AM MDT 9:02 PM MDT
Moon 2:11 PM MDT (9/2) No Moon Set
Length of Visible Light 14h 09m
Length of Day
13h 09m
First Quarter, 53% of the Moon is Illuminated
Sep 2
First Quarter
Sep 8
Full
Sep 15
Last Quarter
Sep 24
New
Oct 1
First Quarter

Hourly Weather History & Observations

Time (MDT) Temp. Dew Point Humidity Pressure Visibility Wind Dir Wind Speed Gust Speed Precip Events Conditions
12:55 AM 52.0 °F 48.0 °F 86% 29.94 in 10.0 mi WSW 5.8 mph - N/A   Clear
1:55 AM 51.1 °F 48.0 °F 89% 29.93 in 10.0 mi West 8.1 mph - N/A   Clear
2:55 AM 50.0 °F 48.0 °F 93% 29.94 in 10.0 mi West 5.8 mph - N/A   Clear
3:55 AM 51.1 °F 48.0 °F 89% 29.94 in 10.0 mi West 6.9 mph - N/A   Clear
4:55 AM 50.0 °F 46.9 °F 89% 29.94 in 10.0 mi Calm Calm - N/A   Clear
5:55 AM 50.0 °F 46.9 °F 89% 29.93 in 10.0 mi Calm Calm - N/A   Clear
6:55 AM 51.1 °F 48.0 °F 89% 29.93 in 10.0 mi Calm Calm - N/A   Clear
7:55 AM 55.9 °F 50.0 °F 80% 29.92 in 10.0 mi West 4.6 mph - N/A   Clear
8:55 AM 61.0 °F 52.0 °F 72% 29.91 in 10.0 mi West 6.9 mph - N/A   Clear
9:55 AM 69.1 °F 50.0 °F 51% 29.91 in 10.0 mi WSW 16.1 mph - N/A   Clear
10:55 AM 75.9 °F 48.0 °F 37% 29.89 in 10.0 mi SW 15.0 mph 18.4 mph N/A   Clear
11:55 AM 79.0 °F 48.0 °F 34% 29.86 in 10.0 mi SSW 16.1 mph - N/A   Clear
12:55 PM 81.0 °F 48.0 °F 31% 29.82 in 10.0 mi SSW 15.0 mph 21.9 mph N/A   Clear
1:55 PM 82.9 °F 48.9 °F 31% 29.81 in 10.0 mi South 8.1 mph 18.4 mph N/A   Clear
2:55 PM 84.0 °F 46.9 °F 27% 29.78 in 10.0 mi SW 11.5 mph - N/A   Clear
3:55 PM 84.0 °F 46.9 °F 27% 29.76 in 10.0 mi West 6.9 mph - N/A   Clear
4:55 PM 84.9 °F 46.9 °F 27% 29.75 in 10.0 mi West 9.2 mph - N/A   Clear
5:55 PM 82.0 °F 46.0 °F 28% 29.74 in 10.0 mi SW 6.9 mph - N/A   Clear
6:55 PM 78.1 °F 48.0 °F 35% 29.73 in 10.0 mi SW 5.8 mph - N/A   Clear
7:55 PM 69.1 °F 46.9 °F 45% 29.74 in 10.0 mi SW 4.6 mph - N/A   Clear
8:55 PM 64.0 °F 48.0 °F 56% 29.73 in 10.0 mi Calm Calm - N/A   Clear
9:55 PM 59.0 °F 48.9 °F 69% 29.73 in 10.0 mi East 4.6 mph - N/A   Clear
10:55 PM 60.1 °F 48.0 °F 64% 29.70 in 10.0 mi ENE 5.8 mph - N/A   Clear
11:55 PM 55.0 °F 48.0 °F 77% 29.68 in 10.0 mi NNE 3.5 mph - N/A   Clear